Location: Sungai Igah
(2.7333°N, 114.2500°E)
Time: 05:04:12
(UTC+00:00)

Atlas 2A Centaur Rocket - Pass Details

Date: 14 June 2021
Orbit: 315 x 19259 km, 27.1° (Epoch: 02 August)

Event Time Altitude Azimuth Distance (km) Brightness Sun altitude
Exits shadow 21:04:47 19° 297° (WNW) 1,348 3.4 -16.9°
Maximum altitude 21:05:43 21° 319° (NW) 1,115 3.2 -16.6°
Drops below altitude 10° 21:07:40 11° 13° (NNE) 1,290 4.2 -16.2°
Sets 21:09:30 0° 36° (NE) 2,021 5.8 -15.8°
